Regional Weather Roundup
Issued by NWS

Home | Current Version | Previous Version | Graphics & Text | Print | Product List | Glossary On
Versions: 1 2 3 4 5 6 7 8 9 10 11 12 13 14 15 16 17 18 19 20 21 22 23 24 25 26 27 28 29 30 31 32 33 34 35 36 37 38 39 40 41 42 43 44 45 46 47 48 49 50
000
ASUS43 KLOT 012000
RWRIL

ILLINOIS REGIONAL WEATHER ROUNDUP
NATIONAL WEATHER SERVICE CHICAGO/ROMEOVILLE IL
300 PM CDT TUE SEP 01 2015

NOTE: "FAIR" INDICATES FEW OR NO CLOUDS BELOW 12,000 FEET WITH NO
SIGNIFICANT WEATHER AND/OR OBSTRUCTIONS TO VISIBILITY.

* THESE STATIONS ARE NOT UNDER NWS QUALITY CONTROL. THEY ALSO MAY NOT
  REPORT WEATHER SUCH AS PRECIPITATION OR FOG.

ILZ001-002-007-009-015-016-024-012100-
NORTHWEST ILLINOIS

CITY           SKY/WX    TMP DP  RH WIND       PRES   REMARKS
MOLINE         SUNNY     91  71  51 SW9       29.98F HX  97
STERLING*      MOSUNNY   91  72  52 W12       29.97F HX  98
$$

ILZ003-004-008-010-011-017-018-012100-
NORTH CENTRAL ILLINOIS

CITY           SKY/WX    TMP DP  RH WIND       PRES   REMARKS
ROCKFORD       MOSUNNY   89  70  53 SW14      30.00F HX  94
$$

ILZ005-006-012>014-019>023-012100-
NORTHEAST ILLINOIS

CITY           SKY/WX    TMP DP  RH WIND       PRES   REMARKS
CHICAGO-OHARE  PTSUNNY   88  72  58 SW7G18    30.00F HX  94
CHICAGO-MIDWAY MOSUNNY   88  71  57 SW12      30.01F HX  94
AURORA         MOSUNNY   87  75  67 S9        30.02F HX  96
WAUKEGAN       MOSUNNY   88  69  53 SW10      29.98F HX  92
DUPAGE AIRPORT MOSUNNY   87  73  62 S13       30.01F HX  94
WHEELING       MOSUNNY   91  67  44 SW12      30.00F HX  94
NORTHERLY ISL    N/A     86  69  56 S13         N/A  HX  90
$$

LMZ740>746-012100-
SOUTHERN LAKE MICHIGAN

STATION/POSITION SKY/WX   TEMP    WIND        PRES    VSBY  WAVE
                          AIR SEA DIR/SP/G                  HT/PER
                          (F)     (DEG/KT/KT) (MB)    (MI)  (FT/S)
SOUTHERN BUOY              73 70  170/ 12/ 14 1015.5F         1/ 3
WILMETTE HARBOR            70 61  310/  8/ 10   N/A           1/ 2
HARRISON CRIB              78     180/ 17/ 20   N/A
BURNHAM HARBOR             84     180/  9/ 16   N/A
CALUMET HARBOR             83     210/  7/ 14   N/A
BURNS HARBOR               81     240/ 12/ 15 1017.6F
MICHIGAN CITY              79     200/ 12/ 13   N/A
MICHIGAN CITY 6N           76 72  240/  8/  8   N/A           1/ 3
ST. JOSEPH                 76 73  280/ 12/ 16   N/A           1
$$

ILZ025>027-034>036-040-047-049-050-058-095>099-012100-
WEST-CENTRAL ILLINOIS

CITY           SKY/WX    TMP DP  RH WIND       PRES   REMARKS
QUINCY         MOSUNNY   89  67  47 SE6       30.03S HX  92
$$

ILZ028>032-037-038-041>044-048-051>054-059>061-012100-
CENTRAL ILLINOIS

CITY           SKY/WX    TMP DP  RH WIND       PRES   REMARKS
DECATUR        MOSUNNY   89  70  53 S9        30.05F HX  94
PEORIA         SUNNY     95  64  35 W13       30.02F HX  97
SPRINGFIELD    SUNNY     92  70  48 S10       30.03F HX  97
TAYLORVILLE    NOT AVBL
$$

ILZ033-039-045-046-055>057-062-063-012100-
EAST-CENTRAL ILLINOIS

CITY           SKY/WX    TMP DP  RH WIND       PRES   REMARKS
CHAMPAIGN      PTSUNNY   87  71  58 S7        30.08S HX  93
MATTOON        MOSUNNY   87  69  54 S9        30.07F HX  91
$$

ILZ079-100>102-012100-
SOUTHWEST ILLINOIS

CITY           SKY/WX    TMP DP  RH WIND       PRES   REMARKS
ALTON          SUNNY     90  70  51 S9        30.06F HX  95
BELLEVILLE     MOSUNNY   91  73  56 SE8       30.05F HX  99
CAHOKIA*       MOSUNNY   90  69  50 S10       30.05F HX  94
$$

ILZ064>066-069>071-074>076-080>082-084>086-088>090-092>094-012100-
SOUTH-CENTRAL ILLINOIS

CITY           SKY/WX    TMP DP  RH WIND       PRES   REMARKS
CARBONDALE     NOT AVBL
MARION         MOSUNNY   90  70  51 S8        30.10F HX  95
MT. VERNON     SUNNY     91  70  49 S8        30.09S HX  97
$$

ILZ067-068-072-073-078-083-087-091-012100-
SOUTHEAST ILLINOIS

CITY           SKY/WX    TMP DP  RH WIND       PRES   REMARKS
LAWRENCEVILLE  MOSUNNY   89  68  49 SW7       30.09F HX  93
$$

ABBREVIATIONS USED IN REMARKS
   TC - TEMPERATURE IN CELSIUS
  WCI - WIND CHILL INDEX
   HX - HEAT INDEX
  VSB - VISIBILITY
$$



USA.gov is the U.S. government's official web portal to all federal, state and local government web resources and services.